Погода в Янгиабаде

Узбекистан     37°28′40″N   67°06′50″E
темп.,
°C
ветер,
м/с
пор.,
м/с
влажн.,
%
обл.,
%
осадки,
мм/ч
давл.,
гПа
погр.,
м
27 февраля, сб
сб2723:00+1юз22310 0.0 103066
02:000зюз22340 0.0 102929
05:000юз23340 0.0 102943
08:000юз233269 0.0 1030130
11:00+4ююв112648 0.0 1031583
14:00+7в22264 0.0 10291051
17:00+8в33262 0.0 10281104
20:00+7всв23330 0.0 102848
28 февраля, вс
вс2823:00+6св47370 0.0 1027148
02:00+5св57370 0.0 1024128
05:00+4св57430 0.0 1022114
08:00+5св47450 0.0 1021125
11:00+11всв56260 0.0 1020583
14:00+15всв45170 0.0 10171013
17:00+16в34160 0.0 10171071
20:00+11юв23290 0.0 101826
1 марта, пн
пн123:00+9в22370 0.0 101822
02:00+9св34290 0.0 101823
05:00+9всв45317 0.0 101833
08:00+9св453473 0.0 101964
11:00+16всв462042 0.0 1019467
14:00+19всв45140 0.0 10181035
17:00+20всв33130 0.0 10171084
20:00+14юв232616 0.0 101823
2 марта, вт
вт223:00+12в123340 0.0 101823
02:00+13св342470 0.0 101923
05:00+12св452785 0.0 101764
08:00+13св3427100 0.0 101860
11:00+17св3418100 0.0 1019266
14:00+20юз3316100 0.0 1018644
17:00+20юз3518100 0.0 1018703
20:00+17ююв2428100 0.0 102045
3 марта, ср
ср323:00+14с023884 0.0 102023
02:00+13всв233793 0.0 101934
05:00+12ссв453879 0.0 101850
08:00+12всв354667 0.0 1019109
11:00+17вюв332964 0.0 1019584
14:00+19юв22270 0.0 10171246
17:00+20ююв22250 0.0 10151510
20:00+16юв343455 0.0 101546